Time,TemperatureF,DewpointF,PressureIn,WindDirection,WindDirectionDegrees,WindSpeedMPH,WindSpeedGustMPH,Humidity,HourlyPrecipIn,Conditions,Clouds,dailyrainin,SoftwareType,DateUTC
2013-04-17 00:00:00,43.7,26.3,30.00,NW,318,4.0,8.0,50,0.00,,---,0.00,VWS V14.01,2013-04-17 07:00:00,
2013-04-17 00:05:00,43.4,26.5,30.00,West,281,4.0,9.0,51,0.00,,---,0.00,VWS V14.01,2013-04-17 07:05:00,
2013-04-17 00:10:00,43.4,26.5,30.00,WNW,285,5.0,9.0,51,0.00,,---,0.00,VWS V14.01,2013-04-17 07:10:00,
2013-04-17 00:15:00,43.2,26.3,30.00,West,276,5.0,9.0,51,0.00,,---,0.00,VWS V14.01,2013-04-17 07:15:00,
2013-04-17 00:20:00,43.1,26.7,30.00,WNW,301,7.0,9.0,52,0.00,,---,0.00,VWS V14.01,2013-04-17 07:20:00,
2013-04-17 00:25:00,43.3,26.4,30.00,WSW,255,4.0,9.0,51,0.00,,---,0.00,VWS V14.01,2013-04-17 07:25:00,
2013-04-17 00:30:00,43.0,26.1,30.01,WNW,300,5.0,6.0,51,0.00,,---,0.00,VWS V14.01,2013-04-17 07:30:00,
2013-04-17 00:35:00,42.9,26.5,30.01,WSW,257,3.0,8.0,52,0.00,,---,0.00,VWS V14.01,2013-04-17 07:35:00,
2013-04-17 00:40:00,42.8,25.9,30.01,NW,313,5.0,8.0,51,0.00,,---,0.00,VWS V14.01,2013-04-17 07:40:00,
2013-04-17 00:45:00,42.8,25.9,30.01,WSW,252,11.0,11.0,51,0.00,,---,0.00,VWS V14.01,2013-04-17 07:45:00,
2013-04-17 00:50:00,42.8,25.5,30.02,WNW,300,6.0,11.0,50,0.00,,---,0.00,VWS V14.01,2013-04-17 07:50:00,
2013-04-17 00:55:00,42.9,25.6,30.01,West,264,4.0,11.0,50,0.00,,---,0.00,VWS V14.01,2013-04-17 07:55:00,
2013-04-17 01:00:00,42.9,25.1,30.02,WNW,285,7.0,8.0,49,0.00,,---,0.00,VWS V14.01,2013-04-17 08:00:00,
2013-04-17 01:05:00,42.7,24.4,30.02,WNW,283,4.0,8.0,48,0.00,,---,0.00,VWS V14.01,2013-04-17 08:05:00,
2013-04-17 01:10:00,42.5,23.7,30.02,WNW,284,6.0,8.0,47,0.00,,---,0.00,VWS V14.01,2013-04-17 08:10:00,
2013-04-17 01:15:00,42.2,23.4,30.02,West,281,3.0,8.0,47,0.00,,---,0.00,VWS V14.01,2013-04-17 08:15:00,
2013-04-17 01:20:00,42.0,23.2,30.02,WNW,299,3.0,8.0,47,0.00,,---,0.00,VWS V14.01,2013-04-17 08:20:00,
2013-04-17 01:25:00,41.9,23.2,30.02,WNW,283,3.0,8.0,47,0.00,,---,0.00,VWS V14.01,2013-04-17 08:25:00,
2013-04-17 01:30:00,41.5,22.3,30.03,West,278,4.0,7.0,46,0.00,,---,0.00,VWS V14.01,2013-04-17 08:30:00,
2013-04-17 01:35:00,41.5,22.3,30.03,WNW,285,1.0,7.0,46,0.00,,---,0.00,VWS V14.01,2013-04-17 08:35:00,
2013-04-17 01:40:00,41.4,22.2,30.03,WNW,283,3.0,7.0,46,0.00,,---,0.00,VWS V14.01,2013-04-17 08:40:00,
2013-04-17 01:45:00,41.1,21.4,30.03,West,280,4.0,7.0,45,0.00,,---,0.00,VWS V14.01,2013-04-17 08:45:00,
2013-04-17 01:50:00,41.2,21.5,30.03,WNW,297,4.0,7.0,45,0.00,,---,0.00,VWS V14.01,2013-04-17 08:50:00,
2013-04-17 01:55:00,41.1,21.4,30.03,WNW,284,4.0,7.0,45,0.00,,---,0.00,VWS V14.01,2013-04-17 08:55:00,
2013-04-17 02:00:00,40.8,21.1,30.03,West,281,4.0,5.0,45,0.00,,---,0.00,VWS V14.01,2013-04-17 09:00:00,
2013-04-17 02:05:00,40.7,21.0,30.03,West,280,4.0,6.0,45,0.00,,---,0.00,VWS V14.01,2013-04-17 09:05:00,
2013-04-17 02:10:00,40.5,21.4,30.03,WSW,243,5.0,6.0,46,0.00,,---,0.00,VWS V14.01,2013-04-17 09:10:00,
2013-04-17 02:15:00,40.4,21.3,30.03,WNW,283,4.0,7.0,46,0.00,,---,0.00,VWS V14.01,2013-04-17 09:15:00,
2013-04-17 02:20:00,40.4,20.8,30.03,WSW,245,3.0,7.0,45,0.00,,---,0.00,VWS V14.01,2013-04-17 09:20:00,
2013-04-17 02:25:00,40.4,20.8,30.03,SW,232,3.0,7.0,45,0.00,,---,0.00,VWS V14.01,2013-04-17 09:25:00,
2013-04-17 02:30:00,40.5,20.9,30.03,WSW,247,3.0,5.0,45,0.00,,---,0.00,VWS V14.01,2013-04-17 09:30:00,
2013-04-17 02:35:00,40.3,20.1,30.04,West,262,2.0,6.0,44,0.00,,---,0.00,VWS V14.01,2013-04-17 09:35:00,
2013-04-17 02:40:00,40.4,20.2,30.04,WNW,283,0.0,6.0,44,0.00,,---,0.00,VWS V14.01,2013-04-17 09:40:00,
2013-04-17 02:45:00,40.3,20.1,30.04,West,269,3.0,7.0,44,0.00,,---,0.00,VWS V14.01,2013-04-17 09:45:00,
2013-04-17 02:50:00,40.3,20.1,30.04,West,267,5.0,7.0,44,0.00,,---,0.00,VWS V14.01,2013-04-17 09:50:00,
2013-04-17 02:55:00,40.2,20.0,30.04,West,279,3.0,7.0,44,0.00,,---,0.00,VWS V14.01,2013-04-17 09:55:00,
2013-04-17 03:00:00,40.1,20.0,30.04,SW,236,2.0,6.0,44,0.00,,---,0.00,VWS V14.01,2013-04-17 10:00:00,
2013-04-17 03:05:00,40.1,20.0,30.04,WSW,249,5.0,6.0,44,0.00,,---,0.00,VWS V14.01,2013-04-17 10:05:00,
2013-04-17 03:10:00,39.9,19.8,30.04,WNW,288,3.0,8.0,44,0.00,,---,0.00,VWS V14.01,2013-04-17 10:10:00,
2013-04-17 03:15:00,39.3,20.3,30.04,SW,230,3.0,8.0,46,0.00,,---,0.00,VWS V14.01,2013-04-17 10:15:00,
2013-04-17 03:20:00,39.1,20.1,30.04,West,261,3.0,8.0,46,0.00,,---,0.00,VWS V14.01,2013-04-17 10:20:00,
2013-04-17 03:25:00,39.0,20.0,30.04,West,274,3.0,8.0,46,0.00,,---,0.00,VWS V14.01,2013-04-17 10:25:00,
2013-04-17 03:30:00,39.0,20.5,30.05,WSW,255,4.0,6.0,47,0.00,,---,0.00,VWS V14.01,2013-04-17 10:30:00,
2013-04-17 03:35:00,39.3,20.8,30.05,WNW,293,2.0,8.0,47,0.00,,---,0.00,VWS V14.01,2013-04-17 10:35:00,
2013-04-17 03:40:00,39.4,20.9,30.05,West,280,3.0,8.0,47,0.00,,---,0.00,VWS V14.01,2013-04-17 10:40:00,
2013-04-17 03:45:00,39.8,21.2,30.05,West,281,7.0,8.0,47,0.00,,---,0.00,VWS V14.01,2013-04-17 10:45:00,
2013-04-17 03:50:00,39.8,20.7,30.05,West,274,4.0,10.0,46,0.00,,---,0.00,VWS V14.01,2013-04-17 10:50:00,
2013-04-17 03:55:00,39.5,21.0,30.05,West,277,5.0,10.0,47,0.00,,---,0.00,VWS V14.01,2013-04-17 10:55:00,
2013-04-17 04:00:00,39.4,20.9,30.05,WNW,290,6.0,8.0,47,0.00,,---,0.00,VWS V14.01,2013-04-17 11:00:00,
2013-04-17 04:05:00,39.7,21.1,30.05,WNW,285,6.0,9.0,47,0.00,,---,0.00,VWS V14.01,2013-04-17 11:05:00,
2013-04-17 04:10:00,40.2,21.6,30.05,NNW,332,4.0,10.0,47,0.00,,---,0.00,VWS V14.01,2013-04-17 11:10:00,
2013-04-17 04:15:00,40.5,21.4,30.05,West,269,7.0,10.0,46,0.00,,---,0.00,VWS V14.01,2013-04-17 11:15:00,
2013-04-17 04:20:00,40.5,21.4,30.05,WSW,252,10.0,10.0,46,0.00,,---,0.00,VWS V14.01,2013-04-17 11:20:00,
2013-04-17 04:25:00,40.6,21.5,30.06,West,266,6.0,11.0,46,0.00,,---,0.00,VWS V14.01,2013-04-17 11:25:00,
2013-04-17 04:30:00,40.4,21.3,30.06,WNW,298,7.0,8.0,46,0.00,,---,0.00,VWS V14.01,2013-04-17 11:30:00,
2013-04-17 04:35:00,40.4,21.3,30.06,WNW,285,9.0,10.0,46,0.00,,---,0.00,VWS V14.01,2013-04-17 11:35:00,
2013-04-17 04:40:00,40.4,21.3,30.05,West,274,6.0,10.0,46,0.00,,---,0.00,VWS V14.01,2013-04-17 11:40:00,
2013-04-17 04:45:00,40.2,21.1,30.06,NW,307,6.0,10.0,46,0.00,,---,0.00,VWS V14.01,2013-04-17 11:45:00,
2013-04-17 04:50:00,40.1,21.0,30.06,WSW,255,4.0,10.0,46,0.00,,---,0.00,VWS V14.01,2013-04-17 11:50:00,
2013-04-17 04:55:00,39.7,21.1,30.05,WNW,283,7.0,10.0,47,0.00,,---,0.00,VWS V14.01,2013-04-17 11:55:00,
2013-04-17 05:00:00,39.6,21.0,30.05,WNW,302,6.0,11.0,47,0.00,,---,0.00,VWS V14.01,2013-04-17 12:00:00,
2013-04-17 05:05:00,39.7,21.1,30.05,WNW,301,6.0,11.0,47,0.00,,---,0.00,VWS V14.01,2013-04-17 12:05:00,
2013-04-17 05:10:00,39.7,21.6,30.05,WSW,255,10.0,13.0,48,0.00,,---,0.00,VWS V14.01,2013-04-17 12:10:00,
2013-04-17 05:15:00,39.9,21.8,30.06,NW,311,7.0,13.0,48,0.00,,---,0.00,VWS V14.01,2013-04-17 12:15:00,
2013-04-17 05:20:00,39.9,21.8,30.06,NW,320,10.0,14.0,48,0.00,,---,0.00,VWS V14.01,2013-04-17 12:20:00,
2013-04-17 05:25:00,40.0,21.9,30.06,NW,313,11.0,14.0,48,0.00,,---,0.00,VWS V14.01,2013-04-17 12:25:00,
2013-04-17 05:30:00,40.2,21.6,30.06,NW,304,10.0,16.0,47,0.00,,---,0.00,VWS V14.01,2013-04-17 12:30:00,
2013-04-17 05:35:00,39.9,21.8,30.06,WNW,302,8.0,16.0,48,0.00,,---,0.00,VWS V14.01,2013-04-17 12:35:00,
2013-04-17 05:40:00,39.6,21.5,30.06,West,280,10.0,16.0,48,0.00,,---,0.00,VWS V14.01,2013-04-17 12:40:00,
2013-04-17 05:45:00,39.5,21.5,30.06,WNW,298,9.0,16.0,48,0.00,,---,0.00,VWS V14.01,2013-04-17 12:45:00,
2013-04-17 05:50:00,39.3,21.8,30.06,WNW,291,8.0,16.0,49,0.00,,---,0.00,VWS V14.01,2013-04-17 12:50:00,
2013-04-17 05:54:00,39.0,21.5,30.06,WNW,300,9.0,16.0,49,0.00,,---,0.00,VWS V14.01,2013-04-17 12:54:00,
2013-04-17 05:59:00,38.6,21.1,30.07,NW,305,7.0,11.0,49,0.00,,---,0.00,VWS V14.01,2013-04-17 12:59:00,
2013-04-17 06:00:00,38.8,21.3,30.07,NW,318,8.0,16.0,49,0.00,,---,0.00,VWS V14.01,2013-04-17 13:00:00,
2013-04-17 06:04:00,38.0,21.0,30.07,WNW,298,5.0,11.0,50,0.00,,---,0.00,VWS V14.01,2013-04-17 13:04:00,
2013-04-17 06:09:00,37.5,21.0,30.07,WNW,293,5.0,11.0,51,0.00,,---,0.00,VWS V14.01,2013-04-17 13:09:00,
2013-04-17 06:14:00,37.0,21.0,30.08,WNW,299,2.0,11.0,52,0.00,,---,0.00,VWS V14.01,2013-04-17 13:14:00,
2013-04-17 06:19:00,36.5,21.0,30.08,WSW,250,5.0,11.0,53,0.00,,---,0.00,VWS V14.01,2013-04-17 13:19:00,
2013-04-17 06:24:00,36.8,21.3,30.08,WNW,283,4.0,11.0,53,0.00,,---,0.00,VWS V14.01,2013-04-17 13:24:00,
2013-04-17 06:29:00,37.2,21.7,30.09,WSW,249,4.0,9.0,53,0.00,,---,0.00,VWS V14.01,2013-04-17 13:29:00,
2013-04-17 06:30:00,37.1,21.6,30.09,West,271,5.0,11.0,53,0.00,,---,0.00,VWS V14.01,2013-04-17 13:30:00,
2013-04-17 06:34:00,38.0,22.0,30.08,WSW,239,8.0,9.0,52,0.00,,---,0.00,VWS V14.01,2013-04-17 13:34:00,
2013-04-17 06:39:00,38.4,21.9,30.08,West,264,8.0,10.0,51,0.00,,---,0.00,VWS V14.01,2013-04-17 13:39:00,
2013-04-17 06:44:00,38.7,22.1,30.08,WNW,290,8.0,11.0,51,0.00,,---,0.00,VWS V14.01,2013-04-17 13:44:00,
2013-04-17 06:49:00,39.1,22.0,30.08,WSW,257,5.0,13.0,50,0.00,,---,0.00,VWS V14.01,2013-04-17 13:49:00,
2013-04-17 06:54:00,39.2,22.1,30.09,WNW,301,6.0,13.0,50,0.00,,---,0.00,VWS V14.01,2013-04-17 13:54:00,
2013-04-17 06:59:00,39.5,22.4,30.09,NW,307,6.0,11.0,50,0.00,,---,0.00,VWS V14.01,2013-04-17 13:59:00,
2013-04-17 07:00:00,39.4,22.3,30.09,West,275,4.0,13.0,50,0.00,,---,0.00,VWS V14.01,2013-04-17 14:00:00,
2013-04-17 07:04:00,39.9,22.3,30.09,West,275,6.0,11.0,49,0.00,,---,0.00,VWS V14.01,2013-04-17 14:04:00,
2013-04-17 07:09:00,40.4,22.3,30.09,NW,309,5.0,11.0,48,0.00,,---,0.00,VWS V14.01,2013-04-17 14:09:00,
2013-04-17 07:14:00,40.9,22.2,30.09,WNW,295,12.0,14.0,47,0.00,,---,0.00,VWS V14.01,2013-04-17 14:14:00,
2013-04-17 07:19:00,41.2,22.0,30.09,West,268,11.0,17.0,46,0.00,,---,0.00,VWS V14.01,2013-04-17 14:19:00,
2013-04-17 07:24:00,41.5,22.3,30.09,NW,322,6.0,17.0,46,0.00,,---,0.00,VWS V14.01,2013-04-17 14:24:00,
2013-04-17 07:29:00,41.9,22.1,30.10,WNW,284,14.0,19.0,45,0.00,,---,0.00,VWS V14.01,2013-04-17 14:29:00,
2013-04-17 07:30:00,41.7,22.5,30.10,NW,309,12.0,17.0,46,0.00,,---,0.00,VWS V14.01,2013-04-17 14:30:00,
2013-04-17 07:34:00,42.2,22.4,30.09,NW,307,10.0,19.0,45,0.00,,---,0.00,VWS V14.01,2013-04-17 14:34:00,
2013-04-17 07:39:00,42.5,22.1,30.10,West,274,16.0,21.0,44,0.00,,---,0.00,VWS V14.01,2013-04-17 14:39:00,
2013-04-17 07:44:00,42.8,21.9,30.10,WNW,303,15.0,21.0,43,0.00,,---,0.00,VWS V14.01,2013-04-17 14:44:00,
2013-04-17 07:49:00,43.0,22.0,30.10,NW,323,11.0,24.0,43,0.00,,---,0.00,VWS V14.01,2013-04-17 14:49:00,
2013-04-17 07:54:00,43.2,22.2,30.10,WNW,295,11.0,24.0,43,0.00,,---,0.00,VWS V14.01,2013-04-17 14:54:00,
2013-04-17 07:59:00,43.5,22.0,30.10,NW,318,16.0,23.0,42,0.00,,---,0.00,VWS V14.01,2013-04-17 14:59:00,
2013-04-17 08:00:00,43.4,22.4,30.10,NW,323,14.0,24.0,43,0.00,,---,0.00,VWS V14.01,2013-04-17 15:00:00,
2013-04-17 08:04:00,43.7,21.6,30.10,NW,305,11.0,23.0,41,0.00,,---,0.00,VWS V14.01,2013-04-17 15:04:00,
2013-04-17 08:09:00,44.1,22.5,30.10,NW,315,13.0,23.0,42,0.00,,---,0.00,VWS V14.01,2013-04-17 15:09:00,
2013-04-17 08:14:00,44.4,22.2,30.10,WNW,288,16.0,24.0,41,0.00,,---,0.00,VWS V14.01,2013-04-17 15:14:00,
2013-04-17 08:19:00,44.5,21.7,30.10,NW,319,9.0,24.0,40,0.00,,---,0.00,VWS V14.01,2013-04-17 15:19:00,
2013-04-17 08:24:00,45.1,22.2,30.10,WNW,288,17.0,24.0,40,0.00,,---,0.00,VWS V14.01,2013-04-17 15:24:00,
2013-04-17 08:29:00,45.4,21.9,30.11,NW,316,11.0,23.0,39,0.00,,---,0.00,VWS V14.01,2013-04-17 15:29:00,
2013-04-17 08:30:00,45.4,21.9,30.11,West,259,21.0,24.0,39,0.00,,---,0.00,VWS V14.01,2013-04-17 15:30:00,
2013-04-17 08:34:00,45.6,22.1,30.11,NW,316,14.0,23.0,39,0.00,,---,0.00,VWS V14.01,2013-04-17 15:34:00,
2013-04-17 08:39:00,46.1,21.9,30.11,NW,305,10.0,23.0,38,0.00,,---,0.00,VWS V14.01,2013-04-17 15:39:00,
2013-04-17 08:44:00,46.6,21.7,30.11,NW,319,17.0,23.0,37,0.00,,---,0.00,VWS V14.01,2013-04-17 15:44:00,
2013-04-17 08:49:00,46.8,21.3,30.11,NW,305,12.0,23.0,36,0.00,,---,0.00,VWS V14.01,2013-04-17 15:49:00,
2013-04-17 08:54:00,47.2,21.6,30.11,WNW,298,17.0,23.0,36,0.00,,---,0.00,VWS V14.01,2013-04-17 15:54:00,
2013-04-17 08:59:00,47.3,21.0,30.11,NW,305,14.0,20.0,35,0.00,,---,0.00,VWS V14.01,2013-04-17 15:59:00,
2013-04-17 09:00:00,47.2,21.0,30.11,NW,312,18.0,23.0,35,0.00,,---,0.00,VWS V14.01,2013-04-17 16:00:00,
2013-04-17 09:04:00,48.0,21.7,30.11,NW,325,10.0,20.0,35,0.00,,---,0.00,VWS V14.01,2013-04-17 16:04:00,
2013-04-17 09:09:00,48.5,21.4,30.11,NW,315,13.0,21.0,34,0.00,,---,0.00,VWS V14.01,2013-04-17 16:09:00,
2013-04-17 09:14:00,48.5,21.4,30.11,WNW,295,17.0,21.0,34,0.00,,---,0.00,VWS V14.01,2013-04-17 16:14:00,
2013-04-17 09:19:00,48.7,20.9,30.11,NNW,333,11.0,21.0,33,0.00,,---,0.00,VWS V14.01,2013-04-17 16:19:00,
2013-04-17 09:24:00,49.3,20.7,30.11,NW,314,11.0,21.0,32,0.00,,---,0.00,VWS V14.01,2013-04-17 16:24:00,
2013-04-17 09:29:00,49.9,19.7,30.12,NW,312,14.0,15.0,30,0.00,,---,0.00,VWS V14.01,2013-04-17 16:29:00,
2013-04-17 09:30:00,49.8,20.4,30.12,NW,311,14.0,21.0,31,0.00,,---,0.00,VWS V14.01,2013-04-17 16:30:00,
2013-04-17 09:34:00,50.1,19.9,30.12,WNW,297,14.0,18.0,30,0.00,,---,0.00,VWS V14.01,2013-04-17 16:34:00,
2013-04-17 09:39:00,50.9,18.1,30.12,NW,309,15.0,18.0,27,0.00,,---,0.00,VWS V14.01,2013-04-17 16:39:00,
2013-04-17 09:44:00,51.1,18.3,30.12,WNW,300,9.0,18.0,27,0.00,,---,0.00,VWS V14.01,2013-04-17 16:44:00,
2013-04-17 09:49:00,51.5,18.6,30.12,West,276,10.0,18.0,27,0.00,,---,0.00,VWS V14.01,2013-04-17 16:49:00,
2013-04-17 09:54:00,52.0,19.1,30.12,WNW,295,10.0,18.0,27,0.00,,---,0.00,VWS V14.01,2013-04-17 16:54:00,
2013-04-17 09:59:00,52.0,18.2,30.12,NW,325,16.0,18.0,26,0.00,,---,0.00,VWS V14.01,2013-04-17 16:59:00,
2013-04-17 10:00:00,52.1,19.2,30.12,West,281,9.0,19.0,27,0.00,,---,0.00,VWS V14.01,2013-04-17 17:00:00,
2013-04-17 10:04:00,52.0,18.2,30.13,NW,315,16.0,20.0,26,0.00,,---,0.00,VWS V14.01,2013-04-17 17:04:00,
2013-04-17 10:09:00,52.3,19.3,30.13,NNW,328,8.0,20.0,27,0.00,,---,0.00,VWS V14.01,2013-04-17 17:09:00,
2013-04-17 10:14:00,52.9,19.0,30.13,NW,307,14.0,20.0,26,0.00,,---,0.00,VWS V14.01,2013-04-17 17:14:00,
2013-04-17 10:19:00,52.8,18.9,30.13,WNW,299,10.0,20.0,26,0.00,,---,0.00,VWS V14.01,2013-04-17 17:19:00,
2013-04-17 10:24:00,52.7,19.7,30.13,NW,305,10.0,20.0,27,0.00,,---,0.00,VWS V14.01,2013-04-17 17:24:00,
2013-04-17 10:29:00,52.6,19.6,30.13,NW,305,7.0,16.0,27,0.00,,---,0.00,VWS V14.01,2013-04-17 17:29:00,
2013-04-17 10:30:00,52.6,19.6,30.13,NW,325,9.0,20.0,27,0.00,,---,0.00,VWS V14.01,2013-04-17 17:30:00,
2013-04-17 10:34:00,52.7,20.5,30.13,NW,323,12.0,17.0,28,0.00,,---,0.00,VWS V14.01,2013-04-17 17:34:00,
2013-04-17 10:39:00,53.2,21.0,30.13,WNW,288,7.0,17.0,28,0.00,,---,0.00,VWS V14.01,2013-04-17 17:39:00,
2013-04-17 10:44:00,54.3,20.2,30.13,WNW,302,8.0,17.0,26,0.00,,---,0.00,VWS V14.01,2013-04-17 17:44:00,
2013-04-17 10:49:00,54.9,19.8,30.13,NW,316,7.0,17.0,25,0.00,,---,0.00,VWS V14.01,2013-04-17 17:49:00,
2013-04-17 10:54:00,55.3,19.1,30.13,NW,312,5.0,17.0,24,0.00,,---,0.00,VWS V14.01,2013-04-17 17:54:00,
2013-04-17 10:59:00,55.0,19.8,30.13,WNW,295,10.0,19.0,25,0.00,,---,0.00,VWS V14.01,2013-04-17 17:59:00,
2013-04-17 11:00:00,55.1,19.0,30.13,WNW,290,7.0,18.0,24,0.00,,---,0.00,VWS V14.01,2013-04-17 18:00:00,
2013-04-17 11:04:00,55.3,21.0,30.12,NW,314,10.0,19.0,26,0.00,,---,0.00,VWS V14.01,2013-04-17 18:04:00,
2013-04-17 11:09:00,55.6,19.4,30.12,WNW,287,13.0,19.0,24,0.00,,---,0.00,VWS V14.01,2013-04-17 18:09:00,
2013-04-17 11:14:00,56.2,18.9,30.12,NW,308,6.0,19.0,23,0.00,,---,0.00,VWS V14.01,2013-04-17 18:14:00,
2013-04-17 11:19:00,56.1,19.8,30.12,WNW,300,9.0,19.0,24,0.00,,---,0.00,VWS V14.01,2013-04-17 18:19:00,
2013-04-17 11:24:00,56.1,19.8,30.12,NW,325,13.0,19.0,24,0.00,,---,0.00,VWS V14.01,2013-04-17 18:24:00,
2013-04-17 11:29:00,56.0,19.7,30.12,NW,305,13.0,14.0,24,0.00,,---,0.00,VWS V14.01,2013-04-17 18:29:00,
2013-04-17 11:30:00,56.1,19.8,30.12,WNW,288,9.0,19.0,24,0.00,,---,0.00,VWS V14.01,2013-04-17 18:30:00,
2013-04-17 11:34:00,56.2,20.9,30.12,NW,315,15.0,18.0,25,0.00,,---,0.00,VWS V14.01,2013-04-17 18:34:00,
2013-04-17 11:39:00,55.7,19.5,30.12,NW,326,10.0,19.0,24,0.00,,---,0.00,VWS V14.01,2013-04-17 18:39:00,
2013-04-17 11:44:00,56.1,18.8,30.12,NW,316,12.0,19.0,23,0.00,,---,0.00,VWS V14.01,2013-04-17 18:44:00,
2013-04-17 11:49:00,56.4,19.1,30.12,NW,305,7.0,19.0,23,0.00,,---,0.00,VWS V14.01,2013-04-17 18:49:00,
2013-04-17 11:54:00,56.7,19.3,30.12,WNW,302,13.0,19.0,23,0.00,,---,0.00,VWS V14.01,2013-04-17 18:54:00,
2013-04-17 11:59:00,56.6,18.2,30.12,NNW,330,16.0,16.0,22,0.00,,---,0.00,VWS V14.01,2013-04-17 18:59:00,
2013-04-17 12:00:00,56.7,18.3,30.12,NW,311,13.0,19.0,22,0.00,,---,0.00,VWS V14.01,2013-04-17 19:00:00,
2013-04-17 12:04:00,56.1,18.8,30.12,NW,305,12.0,17.0,23,0.00,,---,0.00,VWS V14.01,2013-04-17 19:04:00,
2013-04-17 12:09:00,56.3,18.0,30.12,WNW,300,12.0,17.0,22,0.00,,---,0.00,VWS V14.01,2013-04-17 19:09:00,
2013-04-17 12:14:00,56.5,20.2,30.12,WNW,300,9.0,17.0,24,0.00,,---,0.00,VWS V14.01,2013-04-17 19:14:00,
2013-04-17 12:19:00,56.1,19.8,30.12,WNW,302,14.0,17.0,24,0.00,,---,0.00,VWS V14.01,2013-04-17 19:19:00,
2013-04-17 12:24:00,56.0,19.7,30.12,WNW,283,9.0,17.0,24,0.00,,---,0.00,VWS V14.01,2013-04-17 19:24:00,
2013-04-17 12:29:00,56.3,19.0,30.12,WNW,294,16.0,16.0,23,0.00,,---,0.00,VWS V14.01,2013-04-17 19:29:00,
2013-04-17 12:30:00,56.3,19.0,30.12,North,354,7.0,17.0,23,0.00,,---,0.00,VWS V14.01,2013-04-17 19:30:00,
2013-04-17 12:34:00,56.1,18.8,30.12,WNW,293,18.0,18.0,23,0.00,,---,0.00,VWS V14.01,2013-04-17 19:34:00,
2013-04-17 12:39:00,56.3,19.0,30.12,NW,314,12.0,18.0,23,0.00,,---,0.00,VWS V14.01,2013-04-17 19:39:00,
2013-04-17 12:44:00,56.4,18.0,30.12,WNW,300,16.0,21.0,22,0.00,,---,0.00,VWS V14.01,2013-04-17 19:44:00,
2013-04-17 12:49:00,56.5,18.1,30.12,WSW,255,10.0,21.0,22,0.00,,---,0.00,VWS V14.01,2013-04-17 19:49:00,
2013-04-17 12:54:00,56.9,18.5,30.12,WNW,293,11.0,21.0,22,0.00,,---,0.00,VWS V14.01,2013-04-17 19:54:00,
2013-04-17 12:59:00,57.1,19.7,30.12,WNW,302,5.0,15.0,23,0.00,,---,0.00,VWS V14.01,2013-04-17 19:59:00,
2013-04-17 13:00:00,57.1,19.7,30.12,NW,304,15.0,21.0,23,0.00,,---,0.00,VWS V14.01,2013-04-17 20:00:00,
2013-04-17 13:04:00,57.2,17.6,30.12,NW,315,10.0,22.0,21,0.00,,---,0.00,VWS V14.01,2013-04-17 20:04:00,
2013-04-17 13:09:00,57.1,18.6,30.12,West,270,14.0,22.0,22,0.00,,---,0.00,VWS V14.01,2013-04-17 20:09:00,
2013-04-17 13:14:00,56.7,18.3,30.12,WNW,295,14.0,22.0,22,0.00,,---,0.00,VWS V14.01,2013-04-17 20:14:00,
2013-04-17 13:19:00,56.8,19.4,30.12,NNW,337,9.0,22.0,23,0.00,,---,0.00,VWS V14.01,2013-04-17 20:19:00,
2013-04-17 13:24:00,56.7,19.3,30.12,WNW,300,15.0,22.0,23,0.00,,---,0.00,VWS V14.01,2013-04-17 20:24:00,
2013-04-17 13:29:00,57.0,18.5,30.12,NW,316,11.0,16.0,22,0.00,,---,0.00,VWS V14.01,2013-04-17 20:29:00,
2013-04-17 13:30:00,56.8,19.4,30.12,NW,326,12.0,22.0,23,0.00,,---,0.00,VWS V14.01,2013-04-17 20:30:00,
2013-04-17 13:34:00,57.5,19.0,30.12,West,276,12.0,18.0,22,0.00,,---,0.00,VWS V14.01,2013-04-17 20:34:00,
2013-04-17 13:39:00,57.6,18.0,30.12,WNW,285,10.0,18.0,21,0.00,,---,0.00,VWS V14.01,2013-04-17 20:39:00,
2013-04-17 13:44:00,57.4,18.9,30.12,West,273,10.0,19.0,22,0.00,,---,0.00,VWS V14.01,2013-04-17 20:44:00,
2013-04-17 13:49:00,57.1,18.6,30.12,NW,319,12.0,21.0,22,0.00,,---,0.00,VWS V14.01,2013-04-17 20:49:00,
2013-04-17 13:54:00,57.4,17.8,30.12,NW,305,13.0,21.0,21,0.00,,---,0.00,VWS V14.01,2013-04-17 20:54:00,
2013-04-17 13:59:00,57.4,18.9,30.12,WNW,300,11.0,17.0,22,0.00,,---,0.00,VWS V14.01,2013-04-17 20:59:00,
2013-04-17 14:00:00,57.3,18.8,30.12,West,269,11.0,21.0,22,0.00,,---,0.00,VWS V14.01,2013-04-17 21:00:00,
2013-04-17 14:04:00,57.3,18.8,30.12,WNW,302,10.0,20.0,22,0.00,,---,0.00,VWS V14.01,2013-04-17 21:04:00,
2013-04-17 14:09:00,57.0,18.5,30.12,WNW,297,10.0,21.0,22,0.00,,---,0.00,VWS V14.01,2013-04-17 21:09:00,
2013-04-17 14:14:00,57.5,17.9,30.12,NW,314,14.0,21.0,21,0.00,,---,0.00,VWS V14.01,2013-04-17 21:14:00,
2013-04-17 14:19:00,57.6,16.9,30.12,WNW,295,15.0,21.0,20,0.00,,---,0.00,VWS V14.01,2013-04-17 21:19:00,
2013-04-17 14:24:00,57.4,18.9,30.12,NW,305,10.0,21.0,22,0.00,,---,0.00,VWS V14.01,2013-04-17 21:24:00,
2013-04-17 14:29:00,57.2,19.8,30.12,West,262,9.0,17.0,23,0.00,,---,0.00,VWS V14.01,2013-04-17 21:29:00,
2013-04-17 14:30:00,57.2,19.8,30.12,West,271,15.0,21.0,23,0.00,,---,0.00,VWS V14.01,2013-04-17 21:30:00,
2013-04-17 14:34:00,57.8,19.2,30.12,WNW,295,13.0,20.0,22,0.00,,---,0.00,VWS V14.01,2013-04-17 21:34:00,
2013-04-17 14:39:00,58.2,19.6,30.12,NW,315,10.0,20.0,22,0.00,,---,0.00,VWS V14.01,2013-04-17 21:39:00,
2013-04-17 14:44:00,58.5,19.8,30.11,WNW,302,14.0,21.0,22,0.00,,---,0.00,VWS V14.01,2013-04-17 21:44:00,
2013-04-17 14:49:00,58.2,19.6,30.11,NW,308,11.0,22.0,22,0.00,,---,0.00,VWS V14.01,2013-04-17 21:49:00,
2013-04-17 14:54:00,58.1,19.5,30.11,NW,316,9.0,22.0,22,0.00,,---,0.00,VWS V14.01,2013-04-17 21:54:00,
2013-04-17 14:59:00,57.8,19.2,30.11,NW,305,9.0,18.0,22,0.00,,---,0.00,VWS V14.01,2013-04-17 21:59:00,
2013-04-17 15:00:00,57.8,19.2,30.11,NW,325,11.0,22.0,22,0.00,,---,0.00,VWS V14.01,2013-04-17 22:00:00,
2013-04-17 15:04:00,57.8,19.2,30.11,NW,325,13.0,18.0,22,0.00,,---,0.00,VWS V14.01,2013-04-17 22:04:00,
2013-04-17 15:09:00,58.0,18.3,30.11,WNW,302,15.0,22.0,21,0.00,,---,0.00,VWS V14.01,2013-04-17 22:09:00,
2013-04-17 15:14:00,58.3,17.4,30.10,West,260,15.0,22.0,20,0.00,,---,0.00,VWS V14.01,2013-04-17 22:14:00,
2013-04-17 15:19:00,58.0,17.2,30.10,NNW,332,12.0,22.0,20,0.00,,---,0.00,VWS V14.01,2013-04-17 22:19:00,
2013-04-17 15:24:00,58.0,18.3,30.10,NW,326,13.0,23.0,21,0.00,,---,0.00,VWS V14.01,2013-04-17 22:24:00,
2013-04-17 15:29:00,57.8,18.1,30.10,NW,307,13.0,15.0,21,0.00,,---,0.00,VWS V14.01,2013-04-17 22:29:00,
2013-04-17 15:30:00,57.6,18.0,30.10,WNW,302,15.0,23.0,21,0.00,,---,0.00,VWS V14.01,2013-04-17 22:30:00,
2013-04-17 15:34:00,58.4,16.3,30.10,WNW,299,13.0,20.0,19,0.00,,---,0.00,VWS V14.01,2013-04-17 22:34:00,
2013-04-17 15:39:00,58.9,16.7,30.10,NW,316,13.0,20.0,19,0.00,,---,0.00,VWS V14.01,2013-04-17 22:39:00,
2013-04-17 15:44:00,58.9,15.5,30.10,NW,319,16.0,21.0,18,0.00,,---,0.00,VWS V14.01,2013-04-17 22:44:00,
2013-04-17 15:49:00,58.9,16.7,30.10,WNW,297,11.0,21.0,19,0.00,,---,0.00,VWS V14.01,2013-04-17 22:49:00,
2013-04-17 15:54:00,58.5,13.9,30.10,NW,316,10.0,21.0,17,0.00,,---,0.00,VWS V14.01,2013-04-17 22:54:00,
2013-04-17 15:58:00,58.2,16.2,30.10,WNW,302,17.0,19.0,19,0.00,,---,0.00,VWS V14.01,2013-04-17 22:58:00,
2013-04-17 16:00:00,58.1,14.8,30.10,WNW,287,11.0,21.0,18,0.00,,---,0.00,VWS V14.01,2013-04-17 23:00:00,
2013-04-17 16:03:00,58.3,15.0,30.10,WNW,296,13.0,19.0,18,0.00,,---,0.00,VWS V14.01,2013-04-17 23:03:00,
2013-04-17 16:08:00,58.3,16.2,30.09,NW,308,14.0,21.0,19,0.00,,---,0.00,VWS V14.01,2013-04-17 23:08:00,
2013-04-17 16:13:00,58.7,17.8,30.10,North,349,11.0,21.0,20,0.00,,---,0.00,VWS V14.01,2013-04-17 23:13:00,
2013-04-17 16:18:00,58.8,17.8,30.09,WNW,302,12.0,21.0,20,0.00,,---,0.00,VWS V14.01,2013-04-17 23:18:00,
2013-04-17 16:23:00,59.3,18.3,30.10,NW,308,13.0,21.0,20,0.00,,---,0.00,VWS V14.01,2013-04-17 23:23:00,
2013-04-17 16:28:00,59.1,16.9,30.10,WNW,285,9.0,17.0,19,0.00,,---,0.00,VWS V14.01,2013-04-17 23:28:00,
2013-04-17 16:30:00,59.1,16.9,30.10,NW,312,13.0,21.0,19,0.00,,---,0.00,VWS V14.01,2013-04-17 23:30:00,
2013-04-17 16:33:00,58.8,19.0,30.10,WNW,286,16.0,19.0,21,0.00,,---,0.00,VWS V14.01,2013-04-17 23:33:00,
2013-04-17 16:38:00,58.9,19.1,30.10,WNW,292,13.0,19.0,21,0.00,,---,0.00,VWS V14.01,2013-04-17 23:38:00,
2013-04-17 16:43:00,58.8,17.8,30.09,WNW,300,8.0,21.0,20,0.00,,---,0.00,VWS V14.01,2013-04-17 23:43:00,
2013-04-17 16:48:00,58.8,19.0,30.10,WNW,294,8.0,21.0,21,0.00,,---,0.00,VWS V14.01,2013-04-17 23:48:00,
2013-04-17 16:53:00,58.6,18.8,30.09,NW,319,14.0,21.0,21,0.00,,---,0.00,VWS V14.01,2013-04-17 23:53:00,
2013-04-17 16:58:00,58.5,17.6,30.09,NW,308,13.0,18.0,20,0.00,,---,0.00,VWS V14.01,2013-04-17 23:58:00,
2013-04-17 17:00:00,58.5,17.6,30.09,NW,326,14.0,21.0,20,0.00,,---,0.00,VWS V14.01,2013-04-18 00:00:00,
2013-04-17 17:03:00,58.3,18.6,30.09,WNW,299,7.0,18.0,21,0.00,,---,0.00,VWS V14.01,2013-04-18 00:03:00,
2013-04-17 17:08:00,58.4,17.5,30.09,WNW,302,13.0,21.0,20,0.00,,---,0.00,VWS V14.01,2013-04-18 00:08:00,
2013-04-17 17:13:00,58.0,18.3,30.10,WNW,283,8.0,21.0,21,0.00,,---,0.00,VWS V14.01,2013-04-18 00:13:00,
2013-04-17 17:18:00,58.1,20.5,30.09,NW,318,12.0,21.0,23,0.00,,---,0.00,VWS V14.01,2013-04-18 00:18:00,
2013-04-17 17:23:00,57.9,20.4,30.10,NW,305,10.0,21.0,23,0.00,,---,0.00,VWS V14.01,2013-04-18 00:23:00,
2013-04-17 17:29:00,58.0,19.4,30.10,WNW,293,9.0,17.0,22,0.00,,---,0.00,VWS V14.01,2013-04-18 00:29:00,
2013-04-17 17:30:00,58.0,19.4,30.10,NW,314,15.0,21.0,22,0.00,,---,0.00,VWS V14.01,2013-04-18 00:30:00,
2013-04-17 17:34:00,57.9,19.3,30.10,NW,319,11.0,17.0,22,0.00,,---,0.00,VWS V14.01,2013-04-18 00:34:00,
2013-04-17 17:39:00,57.6,20.1,30.10,WNW,291,17.0,19.0,23,0.00,,---,0.00,VWS V14.01,2013-04-18 00:39:00,
2013-04-17 17:44:00,57.2,19.8,30.10,WNW,300,12.0,19.0,23,0.00,,---,0.00,VWS V14.01,2013-04-18 00:44:00,
2013-04-17 17:49:00,57.2,20.8,30.10,West,276,11.0,19.0,24,0.00,,---,0.00,VWS V14.01,2013-04-18 00:49:00,
2013-04-17 17:54:00,57.3,20.8,30.10,NNW,328,11.0,19.0,24,0.00,,---,0.00,VWS V14.01,2013-04-18 00:54:00,
2013-04-17 17:59:00,57.3,20.8,30.10,NW,308,8.0,18.0,24,0.00,,---,0.00,VWS V14.01,2013-04-18 00:59:00,
2013-04-17 18:00:00,57.4,20.9,30.10,NW,305,14.0,19.0,24,0.00,,---,0.00,VWS V14.01,2013-04-18 01:00:00,
2013-04-17 18:04:00,57.2,19.8,30.10,NW,316,7.0,18.0,23,0.00,,---,0.00,VWS V14.01,2013-04-18 01:04:00,
2013-04-17 18:09:00,57.0,20.6,30.10,NW,308,7.0,18.0,24,0.00,,---,0.00,VWS V14.01,2013-04-18 01:09:00,
2013-04-17 18:14:00,56.8,20.4,30.10,WNW,302,8.0,18.0,24,0.00,,---,0.00,VWS V14.01,2013-04-18 01:14:00,
2013-04-17 18:19:00,56.6,20.2,30.10,NW,312,15.0,18.0,24,0.00,,---,0.00,VWS V14.01,2013-04-18 01:19:00,
2013-04-17 18:24:00,56.2,19.9,30.10,NW,309,14.0,18.0,24,0.00,,---,0.00,VWS V14.01,2013-04-18 01:24:00,
2013-04-17 18:29:00,56.0,20.7,30.10,NW,314,11.0,14.0,25,0.00,,---,0.00,VWS V14.01,2013-04-18 01:29:00,
2013-04-17 18:30:00,56.1,20.8,30.10,NW,319,10.0,18.0,25,0.00,,---,0.00,VWS V14.01,2013-04-18 01:30:00,
2013-04-17 18:34:00,55.8,21.5,30.11,NW,308,15.0,18.0,26,0.00,,---,0.00,VWS V14.01,2013-04-18 01:34:00,
2013-04-17 18:39:00,55.6,21.3,30.11,NW,304,5.0,18.0,26,0.00,,---,0.00,VWS V14.01,2013-04-18 01:39:00,
2013-04-17 18:44:00,55.5,21.2,30.11,WNW,297,9.0,18.0,26,0.00,,---,0.00,VWS V14.01,2013-04-18 01:44:00,
2013-04-17 18:48:00,55.1,20.9,30.11,NW,319,8.0,18.0,26,0.00,,---,0.00,VWS V14.01,2013-04-18 01:48:00,
2013-04-17 18:53:00,54.8,20.6,30.11,WNW,302,11.0,18.0,26,0.00,,---,0.00,VWS V14.01,2013-04-18 01:53:00,
2013-04-17 18:58:00,54.5,20.3,30.11,West,273,7.0,12.0,26,0.00,,---,0.00,VWS V14.01,2013-04-18 01:58:00,
2013-04-17 19:00:00,54.5,20.3,30.11,WNW,295,7.0,18.0,26,0.00,,---,0.00,VWS V14.01,2013-04-18 02:00:00,
2013-04-17 19:03:00,54.2,20.1,30.11,NW,305,8.0,14.0,26,0.00,,---,0.00,VWS V14.01,2013-04-18 02:03:00,
2013-04-17 19:08:00,53.8,20.6,30.11,NW,309,8.0,14.0,27,0.00,,---,0.00,VWS V14.01,2013-04-18 02:08:00,
2013-04-17 19:13:00,53.2,21.0,30.11,WNW,284,7.0,14.0,28,0.00,,---,0.00,VWS V14.01,2013-04-18 02:13:00,
2013-04-17 19:18:00,52.6,20.4,30.11,WNW,293,4.0,14.0,28,0.00,,---,0.00,VWS V14.01,2013-04-18 02:18:00,
2013-04-17 19:23:00,52.1,20.8,30.11,NNW,330,5.0,14.0,29,0.00,,---,0.00,VWS V14.01,2013-04-18 02:23:00,
2013-04-17 19:28:00,51.6,20.4,30.11,WNW,291,4.0,9.0,29,0.00,,---,0.00,VWS V14.01,2013-04-18 02:28:00,
2013-04-17 19:30:00,51.6,20.4,30.11,WNW,291,6.0,14.0,29,0.00,,---,0.00,VWS V14.01,2013-04-18 02:30:00,
2013-04-17 19:33:00,51.2,20.9,30.11,West,271,8.0,9.0,30,0.00,,---,0.00,VWS V14.01,2013-04-18 02:33:00,
2013-04-17 19:38:00,50.9,20.6,30.11,West,266,4.0,11.0,30,0.00,,---,0.00,VWS V14.01,2013-04-18 02:38:00,
2013-04-17 19:43:00,50.8,20.5,30.11,West,280,8.0,12.0,30,0.00,,---,0.00,VWS V14.01,2013-04-18 02:43:00,
2013-04-17 19:48:00,50.6,21.1,30.11,WNW,289,4.0,12.0,31,0.00,,---,0.00,VWS V14.01,2013-04-18 02:48:00,
2013-04-17 19:53:00,50.4,20.9,30.12,West,276,5.0,12.0,31,0.00,,---,0.00,VWS V14.01,2013-04-18 02:53:00,
2013-04-17 19:58:00,50.2,20.8,30.11,WNW,286,6.0,6.0,31,0.00,,---,0.00,VWS V14.01,2013-04-18 02:58:00,
2013-04-17 20:00:00,50.2,20.8,30.11,WNW,285,4.0,12.0,31,0.00,,---,0.00,VWS V14.01,2013-04-18 03:00:00,
2013-04-17 20:03:00,49.9,20.5,30.11,West,278,5.0,8.0,31,0.00,,---,0.00,VWS V14.01,2013-04-18 03:03:00,
2013-04-17 20:08:00,49.5,20.9,30.11,West,263,4.0,8.0,32,0.00,,---,0.00,VWS V14.01,2013-04-18 03:08:00,
2013-04-17 20:13:00,49.5,20.9,30.11,West,259,4.0,9.0,32,0.00,,---,0.00,VWS V14.01,2013-04-18 03:13:00,
2013-04-17 20:18:00,49.6,20.2,30.12,WNW,302,4.0,10.0,31,0.00,,---,0.00,VWS V14.01,2013-04-18 03:18:00,
2013-04-17 20:23:00,49.5,20.9,30.12,WNW,295,3.0,10.0,32,0.00,,---,0.00,VWS V14.01,2013-04-18 03:23:00,
2013-04-17 20:28:00,49.3,20.7,30.12,West,273,8.0,8.0,32,0.00,,---,0.00,VWS V14.01,2013-04-18 03:28:00,
2013-04-17 20:30:00,49.3,20.7,30.12,West,281,4.0,10.0,32,0.00,,---,0.00,VWS V14.01,2013-04-18 03:30:00,
2013-04-17 20:33:00,49.1,20.5,30.12,WNW,293,6.0,10.0,32,0.00,,---,0.00,VWS V14.01,2013-04-18 03:33:00,
2013-04-17 20:38:00,49.1,20.5,30.13,WSW,255,4.0,10.0,32,0.00,,---,0.00,VWS V14.01,2013-04-18 03:38:00,
2013-04-17 20:43:00,48.9,20.4,30.13,West,260,6.0,10.0,32,0.00,,---,0.00,VWS V14.01,2013-04-18 03:43:00,
2013-04-17 20:48:00,48.8,20.3,30.13,West,267,9.0,12.0,32,0.00,,---,0.00,VWS V14.01,2013-04-18 03:48:00,
2013-04-17 20:53:00,49.0,20.4,30.13,West,273,5.0,12.0,32,0.00,,---,0.00,VWS V14.01,2013-04-18 03:53:00,
2013-04-17 20:58:00,49.1,20.5,30.13,WNW,291,5.0,9.0,32,0.00,,---,0.00,VWS V14.01,2013-04-18 03:58:00,
2013-04-17 21:00:00,49.0,20.4,30.13,SW,232,4.0,12.0,32,0.00,,---,0.00,VWS V14.01,2013-04-18 04:00:00,
2013-04-17 21:01:00,49.1,20.5,30.14,WSW,251,7.0,9.0,32,0.00,,---,0.00,VWS V14.01,2013-04-18 04:01:00,
2013-04-17 21:06:00,48.9,20.4,30.14,West,266,1.0,9.0,32,0.00,,---,0.00,VWS V14.01,2013-04-18 04:06:00,
2013-04-17 21:11:00,48.5,20.0,30.14,West,277,4.0,9.0,32,0.00,,---,0.00,VWS V14.01,2013-04-18 04:11:00,
2013-04-17 21:16:00,48.3,19.8,30.15,WNW,288,2.0,9.0,32,0.00,,---,0.00,VWS V14.01,2013-04-18 04:16:00,
2013-04-17 21:21:00,48.1,19.6,30.15,WSW,248,1.0,9.0,32,0.00,,---,0.00,VWS V14.01,2013-04-18 04:21:00,
2013-04-17 21:27:00,47.9,19.5,30.15,SW,224,0.0,9.0,32,0.00,,---,0.00,VWS V14.01,2013-04-18 04:27:00,
2013-04-17 21:30:00,47.8,19.4,30.15,SW,226,2.0,9.0,32,0.00,,---,0.00,VWS V14.01,2013-04-18 04:30:00,
2013-04-17 21:32:00,47.7,19.3,30.15,WNW,284,1.0,4.0,32,0.00,,---,0.00,VWS V14.01,2013-04-18 04:32:00,
2013-04-17 21:37:00,47.7,19.3,30.16,South,174,0.0,6.0,32,0.00,,---,0.00,VWS V14.01,2013-04-18 04:37:00,
2013-04-17 21:42:00,47.3,19.0,30.16,SSW,194,0.0,6.0,32,0.00,,---,0.00,VWS V14.01,2013-04-18 04:42:00,
2013-04-17 21:47:00,46.9,19.3,30.16,SW,233,1.0,6.0,33,0.00,,---,0.00,VWS V14.01,2013-04-18 04:47:00,
2013-04-17 21:52:00,46.7,19.8,30.17,West,274,3.0,7.0,34,0.00,,---,0.00,VWS V14.01,2013-04-18 04:52:00,
2013-04-17 21:56:00,46.8,19.9,30.17,North,360,2.0,12.0,34,0.00,,---,0.00,VWS V14.01,2013-04-18 04:56:00,
2013-04-17 22:00:00,47.0,19.4,30.17,SW,222,0.0,12.0,33,0.00,,---,0.00,VWS V14.01,2013-04-18 05:00:00,
2013-04-17 22:01:00,47.2,19.6,30.17,WNW,291,1.0,7.0,33,0.00,,---,0.00,VWS V14.01,2013-04-18 05:01:00,
2013-04-17 22:06:00,47.1,19.5,30.17,East,84,1.0,7.0,33,0.00,,---,0.00,VWS V14.01,2013-04-18 05:06:00,
2013-04-17 22:12:00,47.1,19.5,30.17,WSW,257,6.0,9.0,33,0.00,,---,0.00,VWS V14.01,2013-04-18 05:12:00,
2013-04-17 22:17:00,47.6,19.2,30.17,SE,131,0.0,9.0,32,0.00,,---,0.00,VWS V14.01,2013-04-18 05:17:00,
2013-04-17 22:22:00,47.6,19.2,30.17,WNW,302,3.0,9.0,32,0.00,,---,0.00,VWS V14.01,2013-04-18 05:22:00,
2013-04-17 22:27:00,47.9,18.7,30.17,WSW,249,6.0,9.0,31,0.00,,---,0.00,VWS V14.01,2013-04-18 05:27:00,
2013-04-17 22:30:00,47.9,18.7,30.17,WSW,239,6.0,9.0,31,0.00,,---,0.00,VWS V14.01,2013-04-18 05:30:00,
2013-04-17 22:32:00,47.9,18.7,30.17,WSW,255,3.0,8.0,31,0.00,,---,0.00,VWS V14.01,2013-04-18 05:32:00,
2013-04-17 22:37:00,47.7,18.6,30.17,West,280,2.0,8.0,31,0.00,,---,0.00,VWS V14.01,2013-04-18 05:37:00,
2013-04-17 22:41:00,47.6,18.5,30.17,SW,224,4.0,8.0,31,0.00,,---,0.00,VWS V14.01,2013-04-18 05:41:00,
2013-04-17 22:46:00,47.5,18.4,30.17,West,260,1.0,8.0,31,0.00,,---,0.00,VWS V14.01,2013-04-18 05:46:00,
2013-04-17 22:51:00,47.6,18.5,30.17,WSW,249,5.0,8.0,31,0.00,,---,0.00,VWS V14.01,2013-04-18 05:51:00,
2013-04-17 22:56:00,47.7,18.6,30.17,West,264,3.0,8.0,31,0.00,,---,0.00,VWS V14.01,2013-04-18 05:56:00,
2013-04-17 23:00:00,47.7,17.8,30.17,WSW,251,2.0,8.0,30,0.00,,---,0.00,VWS V14.01,2013-04-18 06:00:00,
2013-04-17 23:01:00,47.9,18.0,30.17,West,278,2.0,5.0,30,0.00,,---,0.00,VWS V14.01,2013-04-18 06:01:00,
2013-04-17 23:06:00,47.9,18.0,30.17,West,269,1.0,5.0,30,0.00,,---,0.00,VWS V14.01,2013-04-18 06:06:00,
2013-04-17 23:12:00,47.7,18.6,30.17,WNW,288,4.0,7.0,31,0.00,,---,0.00,VWS V14.01,2013-04-18 06:12:00,
2013-04-17 23:17:00,47.7,18.6,30.17,West,278,5.0,9.0,31,0.00,,---,0.00,VWS V14.01,2013-04-18 06:17:00,
2013-04-17 23:21:00,47.3,19.0,30.18,West,266,5.0,9.0,32,0.00,,---,0.00,VWS V14.01,2013-04-18 06:21:00,
2013-04-17 23:26:00,46.9,18.6,30.18,West,266,2.0,9.0,32,0.00,,---,0.00,VWS V14.01,2013-04-18 06:26:00,
2013-04-17 23:30:00,46.9,18.6,30.18,SW,230,4.0,9.0,32,0.00,,---,0.00,VWS V14.01,2013-04-18 06:30:00,
2013-04-17 23:31:00,46.9,18.6,30.18,WSW,252,4.0,6.0,32,0.00,,---,0.00,VWS V14.01,2013-04-18 06:31:00,
2013-04-17 23:36:00,47.1,18.8,30.18,West,269,2.0,6.0,32,0.00,,---,0.00,VWS V14.01,2013-04-18 06:36:00,
2013-04-17 23:41:00,47.0,18.7,30.18,WSW,254,3.0,7.0,32,0.00,,---,0.00,VWS V14.01,2013-04-18 06:41:00,
2013-04-17 23:46:00,46.8,18.5,30.19,WSW,255,3.0,7.0,32,0.00,,---,0.00,VWS V14.01,2013-04-18 06:46:00,
2013-04-17 23:52:00,46.7,19.1,30.19,West,269,3.0,7.0,33,0.00,,---,0.00,VWS V14.01,2013-04-18 06:52:00,
2013-04-17 23:57:00,46.5,19.0,30.19,NW,308,0.0,7.0,33,0.00,,---,0.00,VWS V14.01,2013-04-18 06:57:00,